Regional Weather Roundup
Issued by NWS

Home | Current Version | Previous Version | Text Only | Print | Product List | Glossary Off
Versions: 1 2 3 4 5 6 7 8 9 10 11 12 13 14 15 16 17 18 19 20 21 22 23 24 25 26 27 28 29 30 31 32 33 34 35 36 37 38 39 40 41 42 43 44 45 46 47 48 49 50

000
ASUS43 KLSX 251707
RWRMO

WEATHER SUMMARY FOR MISSOURI
NATIONAL WEATHER SERVICE SPRINGFIELD MO
1200 PM CDT MON MAY 25 2015

NOTE: "FAIR" INDICATES FEW OR NO CLOUDS BELOW 12,000 FEET WITH NO
       SIGNIFICANT WEATHER AND/OR OBSTRUCTIONS TO VISIBILITY.
       CURRENT SKY AND/OR WEATHER CONDITIONS ARE NOT AVAILABLE FOR
       CHILLICOTHE AND FARMINGTON.

MOZ001>031-035>038-043-044-053-054-251800-
...NORTHERN AND WESTERN MISSOURI...

CITY           SKY/WX    TMP DP  RH WIND       PRES   REMARKS
KANSAS CTY INT MOSUNNY   74  64  71 S13       29.88S
KANSAS C DTWN  MOSUNNY   76  63  64 S17G24    29.88S
LEE`S SUMMIT   MOSUNNY   73  63  70 SE13G22   29.90F
ST JOSEPH      PTSUNNY   75  63  66 S16       29.85S
CHILLICOTHE      N/A     74  63  68 SE12G17   29.90R
KIRKSVILLE     MOSUNNY   71  63  75 S17G23    29.93S

$$
MOZ066>068-077>081-088>096-101>105-251800-
...SOUTHWEST MISSOURI...

CITY           SKY/WX    TMP DP  RH WIND       PRES   REMARKS
SPRINGFIELD    CLOUDY    74  65  73 S10       29.98R
JOPLIN         MOSUNNY   76  68  76 S12       29.95F

$$
MOZ032>034-039>042-045>050-055>058-069>072-251800-
...CENTRAL MISSOURI...

CITY           SKY/WX    TMP DP  RH WIND       PRES   REMARKS
COLUMBIA       MOSUNNY   74  64  71 S13       29.97F
JEFFERSON CITY CLOUDY    72  62  71 SE5       29.98F
ROLLA          CLOUDY    75  66  73 W7        29.99F
SEDALIA        PTSUNNY   71  65  81 S15       29.96F
WHITEMAN AFB   MOSUNNY   71  65  82 S12G20    29.92F
WARRENSBURG    PTSUNNY   72  63  73 SE14G20   29.92S
OSAGE BEACH    MOSUNNY   75  64  69 CALM      29.98F

$$
MOZ051-052-059>065-251800-
...EAST CENTRAL MISSOURI...

CITY           SKY/WX    TMP DP  RH WIND       PRES   REMARKS
ST LOUIS INTL  PTSUNNY   79  61  53 SW10      30.01F
SPIRIT OF STL  PTSUNNY   78  64  61 VRB5      29.99F
ST CHARLES     MOSUNNY   77  63  61 VRB7      30.00F

$$
MOZ072>076-082>087-097>100-106>115-251800-
...SOUTH CENTRAL AND SOUTHEAST MISSOURI...

CITY           SKY/WX    TMP DP  RH WIND       PRES   REMARKS
CAPE GIRARDEAU CLOUDY    73  69  87 S9        30.07R
FARMINGTON     PTSUNNY   77  66  69 SW9       30.07F
POPLAR BLUFF   CLOUDY    75  68  78 SW8       30.04S
WEST PLAINS    PTSUNNY   76  66  71 S12       30.03F

$$


USA.gov is the U.S. government's official web portal to all federal, state and local government web resources and services.